SCP
0 0 0 0 0 0 0 0 0 0 0 0 0 0 0 0 0 0 0 0 0 0 0 0 0 0 0 0 0 0 0 0
0 0 0 0 0 0 0 0 0 0 0 0 0 0 0 0 0 0 0 0 0 0 0 0 0 0 0 0 0 0 0 0
0 0 0 0 0 0 0 0 0 0 0 0 0 0 0 0 0 0 0 0 0 0 0 0 0 0 0 0 0 0 0 0
-0 0 0 0 0 0 0 0 0 0 0 0 0 0 0 0 0 0 0 0 0 0 0 0 0 0 0 0 0 0 0 0
-0 -0 0 0 0 0 0 0 0 0 0 0 0 0 0 0 0 0 0 0 0 0 0 0 0 0 0 0 0 0 0 0
0 0 0 0 0 0 0 0 0 0 0 0 0 0 0 0 0 0 0 0 0 0 0 0 0 0 0 0 0 0 0 0
0 0 0 0 0 0 0 0 0 0 0 0 0 0 0 0 0 0 0 0 0 0 0 0 0 0 0 0 0 0 0 0
0 0 0 0 0 0 0 0 0 0 0 0 0 0 0 0 0 0 0 0 0 0 0 0 0 0 0 0 0 0 0 0
0 0 0 0 0 0 0 0 0 0 0 0 0 0 0 0 0 0 0 0 0 0 0 0 0 0 0 0 0 0 0 0
0 0 0 0 0 0 0 0 0 0 0 0 0 0 0 0 0 0 0 0 0 0 0 0 0 0 0 0 0 0 0 0
0 0 0 0 0 0 0 0 0 0 0 0 0 0 0 0 0 0 0 0 0 0 0 0 0 0 0 0 0 0 0 0
0 0 0 0 0 0 0 0 0 0 0 0 0 0 0 0 0 0 0 0 0 0 0 0 0 0 0 0 0 0 0 0
0 0 0 0 0 0 0 0 0 0 0 0 0 0 0 0 0 0 0 0 0 0 0 0 0 0 0 0 0 0 0 0
0 0 0 0 0 0 0 0 0 0 0 0 0 0 0 0 0 0 0 0 0 0 0 0 0 0 0 0 0 0 0 0
0 0 0 0 0 0 0 0 0 0 0 0 0 0 0 0 0 0 0 0 0 0 0 0 0 0 0 0 0 0 0 0
-0 0 0 0 0 0 0 0 0 0 0 0 0 0 0 0 0 0 0 0 0 0 0 0 0 0 0 0 0 0 0 0
0 0 0 0 0 0 0 0 0 0 0 0 0 0 0 0 0 0 0 0 0 0 0 0 0 0 0 0 0 0 0 0
-0 0 -0 0 0 0 0 0 0 0 0 0 0 0 0 0 0 0 0 0 0 0 0 0 0 0 0 0 0 0 0 0
-0 0 0 0 0 0 0 0 0 0 0 0 0 0 0 0 0 0 0 0 0 0 0 0 0 0 0 0 0 0 0 0
0 0 0 0 0 0 0 0 0 0 0 0 0 0 0 0 0 0 0 0 0 0 0 0 0 0 0 0 0 0 0 0
Wind_Speed_500mb
42 42 38 46 55 58 61 64 73 76 79 89 84 81 80 80 77 73 67 62 59 56 55 55 56 55 55 56 54 58 58 59
52 47 49 53 52 53 55 63 67 65 69 78 81 80 78 79 77 75 71 67 63 60 58 57 56 55 55 56 59 61 57 56
61 66 56 46 48 51 50 53 60 61 63 71 73 74 77 75 72 69 69 68 64 63 62 60 59 58 58 57 59 58 57 54
70 64 55 46 42 46 44 41 47 56 59 66 70 72 70 68 66 67 64 64 62 62 62 60 55 53 54 56 57 53 50 53
77 80 71 68 49 48 45 44 45 50 54 60 65 67 65 64 64 63 61 60 59 58 54 51 49 51 53 51 50 50 51 52
87 76 70 68 58 49 53 52 52 52 54 57 58 59 60 58 57 58 58 55 50 48 49 49 51 52 51 51 52 50 48 49
86 93 93 79 57 61 57 53 52 51 49 48 48 49 50 50 49 45 43 42 43 43 45 46 49 50 54 54 51 50 47 49
94 94 99 91 76 63 63 57 53 47 44 43 44 44 43 41 40 40 42 42 43 44 47 49 52 53 51 47 45 43 42 39
95 94 85 97 81 65 63 67 60 55 50 47 45 43 42 42 42 42 41 42 43 45 44 42 41 41 38 39 38 37 33 27
97 98 92 87 90 78 73 73 73 69 62 55 51 50 49 48 46 45 46 45 44 41 38 36 35 32 30 30 27 27 27 24
93 94 94 96 93 86 79 80 90 84 73 64 57 58 55 53 52 50 48 47 46 43 39 37 36 36 32 26 24 24 25 21
93 96 99 96 98 95 88 93 93 89 79 73 68 65 61 60 57 56 57 55 51 47 44 43 39 35 32 28 28 29 25 24
95 99 97 99 94 91 97 88 95 97 90 84 77 72 70 67 63 62 60 56 54 52 51 46 39 35 35 34 33 31 30 25
79 86 89 98 97 90 96 91 96 105 99 90 82 77 74 74 72 71 67 62 60 58 53 48 44 39 37 34 33 31 31 25
101 97 88 82 86 84 85 88 98 108 103 94 87 80 77 75 74 73 72 70 65 62 58 51 46 41 38 35 33 33 30 25
103 92 95 86 83 80 84 86 89 103 101 96 89 83 82 79 77 72 67 65 62 58 53 51 48 42 36 34 35 32 26 22
100 90 86 85 75 84 81 88 92 101 104 97 89 88 85 83 79 66 58 56 52 48 47 48 43 43 41 39 35 29 25 25
93 88 83 79 73 75 80 82 93 101 104 98 93 91 89 89 86 84 71 63 59 58 56 49 49 47 43 39 35 29 26 26
87 83 72 75 67 63 70 76 88 96 97 95 94 91 90 90 87 83 82 84 75 66 59 55 53 47 42 35 32 31 30 23
78 72 61 61 60 59 66 75 86 91 90 91 90 91 92 89 84 80 80 79 77 74 69 60 51 45 40 36 30 25 24 23
Wind_Direction_500mb
312 307 285 274 267 258 257 257 254 247 246 243 242 240 242 244 245 246 249 250 250 250 250 249 249 251 251 253 256 261 262 266
346 321 302 284 259 254 257 254 251 249 248 239 239 242 243 244 244 245 247 248 249 247 248 248 247 247 248 250 254 259 263 267
343 336 320 297 267 256 266 265 254 251 245 238 238 239 242 243 242 241 243 245 246 244 246 245 243 243 243 247 254 257 262 265
333 332 331 316 277 262 264 265 256 250 248 241 237 237 238 239 237 238 241 243 243 243 243 243 245 247 252 255 256 254 258 261
323 323 321 326 303 268 269 267 261 253 247 242 240 239 239 238 237 239 239 241 240 241 244 243 244 246 246 247 249 252 258 263
309 310 315 320 309 285 268 266 261 255 247 243 239 236 236 235 235 237 237 239 240 239 240 238 238 240 238 239 244 246 248 256
295 293 296 302 307 303 280 266 259 252 244 238 233 231 232 234 235 236 237 238 237 237 236 238 237 238 236 236 242 246 246 248
284 284 289 290 286 292 281 266 255 244 234 226 224 223 224 227 230 233 234 234 234 233 233 234 235 237 239 238 239 243 250 256
291 291 287 291 286 281 284 261 250 240 232 227 225 224 225 229 230 230 229 230 231 230 230 231 230 232 236 241 241 241 239 238
293 296 293 282 290 289 277 259 243 237 233 230 231 233 233 231 228 226 225 225 225 223 223 224 226 229 234 235 221 216 213 218
296 295 291 291 291 286 273 259 244 236 234 233 234 235 234 229 225 224 223 222 219 217 216 219 223 225 215 203 204 197 199 211
303 296 294 291 288 282 274 257 251 239 234 231 232 232 230 227 223 219 215 212 211 210 212 215 209 207 203 201 204 201 202 204
302 298 299 292 287 281 274 264 249 237 232 231 230 228 224 222 217 213 212 210 210 208 205 203 203 202 203 202 202 202 207 203
307 307 299 290 285 275 272 265 247 234 230 227 226 225 222 219 216 210 208 209 206 202 200 200 199 199 195 199 201 203 205 202
300 306 307 305 289 273 271 261 246 233 228 224 222 220 217 215 214 212 208 202 200 198 198 197 196 194 193 193 194 197 198 193
297 303 301 296 290 279 265 256 243 232 227 222 219 217 215 213 211 209 208 206 201 199 199 197 193 190 187 187 188 187 183 182
293 294 299 294 283 276 266 251 240 229 224 221 216 212 210 207 202 200 202 199 195 195 193 186 186 183 180 180 180 176 174 178
292 288 288 290 281 274 264 250 238 230 222 217 214 210 205 200 196 190 187 187 185 184 183 184 179 178 178 176 175 174 180 181
291 283 277 280 280 272 259 243 230 224 219 215 210 205 200 198 194 193 187 181 177 177 175 176 178 178 176 176 178 180 175 180
286 277 275 275 273 260 243 231 224 219 214 210 205 201 199 196 195 193 190 185 180 175 176 175 176 175 175 177 180 186 186 187
Wind_Speed_850mb
42 42 38 46 55 58 61 64 73 76 79 89 84 81 80 80 77 73 67 62 59 56 55 55 56 55 55 56 54 58 58 59
52 47 49 53 52 53 55 63 67 65 69 78 81 80 78 79 77 75 71 67 63 60 58 57 56 55 55 56 59 61 57 56
61 66 56 46 48 51 50 53 60 61 63 71 73 74 77 75 72 69 69 68 64 63 62 60 59 58 58 57 59 58 57 54
70 64 55 46 42 46 44 41 47 56 59 66 70 72 70 68 66 67 64 64 62 62 62 60 55 53 54 56 57 53 50 53
77 80 71 68 49 48 45 44 45 50 54 60 65 67 65 64 64 63 61 60 59 58 54 51 49 51 53 51 50 50 51 52
87 76 70 68 58 49 53 52 52 52 54 57 58 59 60 58 57 58 58 55 50 48 49 49 51 52 51 51 52 50 48 49
86 93 93 79 57 61 57 53 52 51 49 48 48 49 50 50 49 45 43 42 43 43 45 46 49 50 54 54 51 50 47 49
94 94 99 91 76 63 63 57 53 47 44 43 44 44 43 41 40 40 42 42 43 44 47 49 52 53 51 47 45 43 42 39
95 94 85 97 81 65 63 67 60 55 50 47 45 43 42 42 42 42 41 42 43 45 44 42 41 41 38 39 38 37 33 27
97 98 92 87 90 78 73 73 73 69 62 55 51 50 49 48 46 45 46 45 44 41 38 36 35 32 30 30 27 27 27 24
93 94 94 96 93 86 79 80 90 84 73 64 57 58 55 53 52 50 48 47 46 43 39 37 36 36 32 26 24 24 25 21
93 96 99 96 98 95 88 93 93 89 79 73 68 65 61 60 57 56 57 55 51 47 44 43 39 35 32 28 28 29 25 24
95 99 97 99 94 91 97 88 95 97 90 84 77 72 70 67 63 62 60 56 54 52 51 46 39 35 35 34 33 31 30 25
79 86 89 98 97 90 96 91 96 105 99 90 82 77 74 74 72 71 67 62 60 58 53 48 44 39 37 34 33 31 31 25
101 97 88 82 86 84 85 88 98 108 103 94 87 80 77 75 74 73 72 70 65 62 58 51 46 41 38 35 33 33 30 25
103 92 95 86 83 80 84 86 89 103 101 96 89 83 82 79 77 72 67 65 62 58 53 51 48 42 36 34 35 32 26 22
100 90 86 85 75 84 81 88 92 101 104 97 89 88 85 83 79 66 58 56 52 48 47 48 43 43 41 39 35 29 25 25
93 88 83 79 73 75 80 82 93 101 104 98 93 91 89 89 86 84 71 63 59 58 56 49 49 47 43 39 35 29 26 26
87 83 72 75 67 63 70 76 88 96 97 95 94 91 90 90 87 83 82 84 75 66 59 55 53 47 42 35 32 31 30 23
78 72 61 61 60 59 66 75 86 91 90 91 90 91 92 89 84 80 80 79 77 74 69 60 51 45 40 36 30 25 24 23
Wind_Direction_850mb
312 307 285 274 267 258 257 257 254 247 246 243 242 240 242 244 245 246 249 250 250 250 250 249 249 251 251 253 256 261 262 266
346 321 302 284 259 254 257 254 251 249 248 239 239 242 243 244 244 245 247 248 249 247 248 248 247 247 248 250 254 259 263 267
343 336 320 297 267 256 266 265 254 251 245 238 238 239 242 243 242 241 243 245 246 244 246 245 243 243 243 247 254 257 262 265
333 332 331 316 277 262 264 265 256 250 248 241 237 237 238 239 237 238 241 243 243 243 243 243 245 247 252 255 256 254 258 261
323 323 321 326 303 268 269 267 261 253 247 242 240 239 239 238 237 239 239 241 240 241 244 243 244 246 246 247 249 252 258 263
309 310 315 320 309 285 268 266 261 255 247 243 239 236 236 235 235 237 237 239 240 239 240 238 238 240 238 239 244 246 248 256
295 293 296 302 307 303 280 266 259 252 244 238 233 231 232 234 235 236 237 238 237 237 236 238 237 238 236 236 242 246 246 248
284 284 289 290 286 292 281 266 255 244 234 226 224 223 224 227 230 233 234 234 234 233 233 234 235 237 239 238 239 243 250 256
291 291 287 291 286 281 284 261 250 240 232 227 225 224 225 229 230 230 229 230 231 230 230 231 230 232 236 241 241 241 239 238
293 296 293 282 290 289 277 259 243 237 233 230 231 233 233 231 228 226 225 225 225 223 223 224 226 229 234 235 221 216 213 218
296 295 291 291 291 286 273 259 244 236 234 233 234 235 234 229 225 224 223 222 219 217 216 219 223 225 215 203 204 197 199 211
303 296 294 291 288 282 274 257 251 239 234 231 232 232 230 227 223 219 215 212 211 210 212 215 209 207 203 201 204 201 202 204
302 298 299 292 287 281 274 264 249 237 232 231 230 228 224 222 217 213 212 210 210 208 205 203 203 202 203 202 202 202 207 203
307 307 299 290 285 275 272 265 247 234 230 227 226 225 222 219 216 210 208 209 206 202 200 200 199 199 195 199 201 203 205 202
300 306 307 305 289 273 271 261 246 233 228 224 222 220 217 215 214 212 208 202 200 198 198 197 196 194 193 193 194 197 198 193
297 303 301 296 290 279 265 256 243 232 227 222 219 217 215 213 211 209 208 206 201 199 199 197 193 190 187 187 188 187 183 182
293 294 299 294 283 276 266 251 240 229 224 221 216 212 210 207 202 200 202 199 195 195 193 186 186 183 180 180 180 176 174 178
292 288 288 290 281 274 264 250 238 230 222 217 214 210 205 200 196 190 187 187 185 184 183 184 179 178 178 176 175 174 180 181
291 283 277 280 280 272 259 243 230 224 219 215 210 205 200 198 194 193 187 181 177 177 175 176 178 178 176 176 178 180 175 180
286 277 275 275 273 260 243 231 224 219 214 210 205 201 199 196 195 193 190 185 180 175 176 175 176 175 175 177 180 186 186 187